| time (UTC) | temp F | wind direction | speed MPH | gust MPH | rain 1hr in | rain 24hr in | rain mn in | humidity % | barometer mb |
| 20260904014556 | 84 | 123 | 0.0 | 0.0 | 0.00 | 0.00 | 0.00 | 71 | 1008.8 |
| 20260904013118 | 84 | 138 | 0.0 | 3.0 | 0.00 | 0.00 | 0.00 | 70 | 1008.6 |
| 20260904011554 | 85 | 119 | 0.0 | 0.0 | 0.00 | 0.00 | 0.00 | 68 | 1008.6 |
| 20260904010054 | 85 | 118 | 0.0 | 11.0 | 0.00 | 0.00 | 0.00 | 66 | 1008.5 |
| 20260904004552 | 86 | 135 | 1.0 | 13.0 | 0.00 | 0.00 | 0.00 | 62 | 1008.4 |
| 20260904003052 | 86 | 157 | 0.0 | 9.0 | 0.00 | 0.00 | 0.00 | 65 | 1008.3 |
| 20260904001605 | 87 | 150 | 0.0 | 10.0 | 0.00 | 0.00 | 0.00 | 64 | 1008.2 |
| 20260904000051 | 88 | 136 | 0.0 | 6.0 | 0.00 | 0.00 | 0.00 | 63 | 1008.1 |
| 20260903234550 | 88 | 139 | 1.0 | 9.0 | 0.00 | 0.02 | 0.00 | 62 | 1008.1 |
| 20260903233050 | 89 | 153 | 0.0 | 10.0 | 0.00 | 0.02 | 0.00 | 61 | 1008.0 |
| 20260903231601 | 90 | 149 | 2.0 | 13.0 | 0.00 | 0.02 | 0.00 | 60 | 1007.9 |
| 20260903230049 | 91 | 164 | 0.0 | 9.0 | 0.00 | 0.02 | 0.00 | 58 | 1007.9 |
| 20260903224550 | 92 | 130 | 0.0 | 7.0 | 0.00 | 0.02 | 0.00 | 56 | 1007.8 |
| 20260903223048 | 91 | 134 | 0.0 | 6.0 | 0.00 | 0.02 | 0.00 | 58 | 1007.7 |
| 20260903221546 | 91 | 154 | 1.0 | 9.0 | 0.00 | 0.02 | 0.00 | 57 | 1007.8 |
| 20260903220043 | 91 | 267 | 0.0 | 9.0 | 0.00 | 0.02 | 0.00 | 58 | 1007.7 |
| 20260903214541 | 91 | 138 | 0.0 | 9.0 | 0.00 | 0.02 | 0.00 | 59 | 1008.1 |
| 20260903213049 | 91 | 142 | 0.0 | 7.0 | 0.00 | 0.02 | 0.00 | 61 | 1008.2 |
| 20260903211537 | 90 | 271 | 1.0 | 8.0 | 0.00 | 0.02 | 0.00 | 62 | 1008.3 |
| 20260903210037 | 89 | 119 | 0.0 | 12.0 | 0.00 | 0.02 | 0.00 | 63 | 1008.2 |
| 20260903204540 | 89 | 124 | 0.0 | 15.0 | 0.00 | 0.02 | 0.00 | 63 | 1008.5 |
| 20260903203034 | 90 | 112 | 2.0 | 9.0 | 0.00 | 0.02 | 0.00 | 62 | 1008.8 |
| 20260903201533 | 90 | 24 | 2.0 | 9.0 | 0.00 | 0.02 | 0.00 | 62 | 1009.0 |
| 20260903200027 | 88 | 132 | 1.0 | 7.0 | 0.00 | 0.02 | 0.00 | 66 | 1008.9 |
| 20260903194526 | 87 | 116 | 0.0 | 4.0 | 0.00 | 0.02 | 0.00 | 68 | 1009.1 |
| 20260903193026 | 87 | 116 | 1.0 | 8.0 | 0.00 | 0.02 | 0.00 | 67 | 1009.3 |
| 20260903191536 | 87 | 167 | 0.0 | 9.0 | 0.00 | 0.02 | 0.00 | 67 | 1009.3 |
| 20260903190024 | 88 | 274 | 0.0 | 8.0 | 0.00 | 0.02 | 0.00 | 68 | 1009.5 |
| 20260903184521 | 87 | 149 | 1.0 | 9.0 | 0.00 | 0.02 | 0.00 | 69 | 1009.8 |
| 20260903183026 | 86 | 152 | 2.0 | 8.0 | 0.00 | 0.02 | 0.00 | 70 | 1010.0 |
| 20260903181518 | 85 | 126 | 1.0 | 13.0 | 0.00 | 0.02 | 0.00 | 72 | 1010.3 |
| 20260903180025 | 84 | 117 | 3.0 | 11.0 | 0.00 | 0.02 | 0.00 | 73 | 1010.5 |
| 20260903174513 | 84 | 171 | 2.0 | 11.0 | 0.00 | 0.02 | 0.00 | 74 | 1010.6 |
| 20260903173012 | 83 | 146 | 2.0 | 7.0 | 0.00 | 0.02 | 0.00 | 76 | 1010.7 |
| 20260903171513 | 84 | 176 | 1.0 | 14.0 | 0.00 | 0.02 | 0.00 | 76 | 1010.7 |
| 20260903170013 | 84 | 134 | 0.0 | 6.0 | 0.00 | 0.02 | 0.00 | 77 | 1010.8 |
| 20260903164508 | 83 | 126 | 2.0 | 9.0 | 0.00 | 0.02 | 0.00 | 78 | 1010.7 |
| 20260903163006 | 82 | 150 | 0.0 | 5.0 | 0.00 | 0.02 | 0.00 | 80 | 1010.7 |
| 20260903161503 | 82 | 132 | 0.0 | 7.0 | 0.00 | 0.02 | 0.00 | 81 | 1010.5 |
| 20260903160001 | 82 | 104 | 0.0 | 3.0 | 0.00 | 0.02 | 0.00 | 83 | 1010.6 |
| 20260903154600 | 81 | 105 | 0.0 | 7.0 | 0.00 | 0.02 | 0.00 | 83 | 1010.7 |
| 20260903153059 | 81 | 128 | 0.0 | 1.0 | 0.00 | 0.02 | 0.00 | 83 | 1010.6 |
| 20260903151558 | 81 | 139 | 0.0 | 5.0 | 0.00 | 0.02 | 0.00 | 84 | 1010.5 |
| 20260903150100 | 81 | 125 | 0.0 | 3.0 | 0.00 | 0.02 | 0.00 | 84 | 1010.6 |
| 20260903144554 | 80 | 212 | 0.0 | 8.0 | 0.00 | 0.02 | 0.00 | 85 | 1010.6 |
| 20260903143054 | 80 | 116 | 0.0 | 0.0 | 0.00 | 0.02 | 0.00 | 85 | 1010.6 |
| 20260903141552 | 79 | 111 | 0.0 | 0.0 | 0.00 | 0.02 | 0.00 | 86 | 1010.6 |
| 20260903140052 | 79 | 148 | 0.0 | 0.0 | 0.00 | 0.02 | 0.00 | 86 | 1010.8 |
| 20260903134611 | 78 | 153 | 1.0 | 9.0 | 0.00 | 0.02 | 0.00 | 86 | 1010.8 |
| 20260903133052 | 78 | 166 | 1.0 | 6.0 | 0.00 | 0.02 | 0.00 | 86 | 1010.5 |
| 20260903131545 | 0 | 0.0 | 0.0 | 0.00 | 0.02 | 0.00 | 1010.3 | ||
| 20260903130041 | 0 | 0.0 | 0.0 | 0.00 | 0.02 | 0.00 | 1010.3 | ||
| 20260903124536 | 0 | 0.0 | 0.0 | 0.00 | 0.02 | 0.00 | 1010.2 | ||
| 20260903123034 | 0 | 0.0 | 0.0 | 0.00 | 0.02 | 0.00 | 1010.2 | ||
| 20260903121535 | 0 | 0.0 | 0.0 | 0.00 | 0.02 | 0.00 | 1010.1 | ||
| 20260903120028 | 0 | 0.0 | 0.0 | 0.00 | 0.02 | 0.00 | 1009.9 | ||
| 20260903114519 | 0 | 0.0 | 0.0 | 0.00 | 0.02 | 0.00 | 1009.5 | ||
| 20260903113016 | 78 | 126 | 0.0 | 0.0 | 0.00 | 0.02 | 0.00 | 84 | 1009.8 |
| 20260903111515 | 78 | 126 | 0.0 | 3.0 | 0.00 | 0.02 | 0.00 | 84 | 1010.0 |
| 20260903110015 | 78 | 125 | 0.0 | 0.0 | 0.00 | 0.02 | 0.00 | 84 | 1009.9 |
| 20260903104513 | 78 | 124 | 0.0 | 0.0 | 0.00 | 0.02 | 0.00 | 83 | 1009.7 |
| 20260903103011 | 79 | 123 | 0.0 | 4.0 | 0.00 | 0.02 | 0.00 | 82 | 1009.3 |
| 20260903101510 | 79 | 138 | 0.0 | 4.0 | 0.00 | 0.02 | 0.00 | 79 | 1009.4 |
| 20260903100009 | 80 | 156 | 0.0 | 3.0 | 0.00 | 0.02 | 0.00 | 78 | 1009.2 |
| 20260903094508 | 80 | 265 | 0.0 | 0.0 | 0.00 | 0.02 | 0.00 | 78 | 1009.4 |
| 20260903093010 | 79 | 265 | 0.0 | 3.0 | 0.00 | 0.02 | 0.00 | 78 | 1009.4 |
| 20260903091507 | 79 | 213 | 0.0 | 1.0 | 0.00 | 0.02 | 0.00 | 79 | 1009.4 |
| 20260903090007 | 79 | 125 | 0.0 | 6.0 | 0.00 | 0.02 | 0.00 | 79 | 1009.4 |
| 20260903084506 | 80 | 211 | 0.0 | 0.0 | 0.00 | 0.02 | 0.00 | 79 | 1009.2 |
| 20260903083106 | 80 | 157 | 0.0 | 0.0 | 0.00 | 0.02 | 0.00 | 80 | 1009.2 |
| 20260903081504 | 80 | 219 | 0.0 | 0.0 | 0.00 | 0.02 | 0.00 | 80 | 1009.2 |
| 20260903080004 | 80 | 153 | 0.0 | 0.0 | 0.00 | 0.02 | 0.00 | 80 | 1009.1 |
| 20260903074506 | 80 | 136 | 0.0 | 0.0 | 0.00 | 0.02 | 0.00 | 80 | 1009.0 |
| 20260903073003 | 80 | 136 | 0.0 | 0.0 | 0.00 | 0.02 | 0.00 | 80 | 1009.2 |
| 20260903071605 | 80 | 136 | 0.0 | 0.0 | 0.00 | 0.02 | 0.00 | 80 | 1009.3 |
| 20260903070113 | 80 | 136 | 0.0 | 0.0 | 0.00 | 0.02 | 0.00 | 80 | 1009.3 |
| 20260903064558 | 80 | 134 | 0.0 | 0.0 | 0.00 | 0.02 | 0.00 | 79 | 1009.4 |
| 20260903063107 | 80 | 134 | 0.0 | 1.0 | 0.00 | 0.02 | 0.00 | 79 | 1009.5 |
| 20260903061606 | 80 | 152 | 0.0 | 0.0 | 0.00 | 0.02 | 0.00 | 78 | 1009.3 |
| 20260903060053 | 80 | 150 | 0.0 | 5.0 | 0.00 | 0.02 | 0.00 | 77 | 1009.7 |
| 20260903054558 | 80 | 157 | 0.0 | 3.0 | 0.00 | 0.02 | 0.00 | 76 | 1009.8 |
| 20260903053051 | 80 | 103 | 0.0 | 3.0 | 0.00 | 0.02 | 0.00 | 75 | 1009.7 |
| 20260903051552 | 81 | 162 | 0.0 | 3.0 | 0.00 | 0.02 | 0.00 | 75 | 1009.8 |
| 20260903050044 | 81 | 131 | 2.0 | 17.0 | 0.00 | 0.02 | 0.00 | 74 | 1010.1 |
| 20260903044551 | 82 | 174 | 0.0 | 3.0 | 0.00 | 0.02 | 0.02 | 71 | 1010.0 |
| 20260903043043 | 82 | 126 | 0.0 | 7.0 | 0.00 | 0.02 | 0.02 | 70 | 1009.7 |
| 20260903041554 | 83 | 113 | 0.0 | 8.0 | 0.00 | 0.02 | 0.02 | 69 | 1009.9 |
| 20260903040043 | 83 | 101 | 0.0 | 7.0 | 0.00 | 0.02 | 0.02 | 68 | 1009.9 |
| 20260903034543 | 84 | 146 | 1.0 | 8.0 | 0.00 | 0.02 | 0.02 | 67 | 1009.8 |
| 20260903033041 | 84 | 144 | 1.0 | 12.0 | 0.00 | 0.02 | 0.02 | 66 | 1009.9 |
| 20260903031540 | 85 | 158 | 0.0 | 9.0 | 0.00 | 0.02 | 0.02 | 64 | 1009.8 |
| 20260903030040 | 85 | 142 | 0.0 | 10.0 | 0.00 | 0.02 | 0.02 | 63 | 1009.9 |
| 20260903024542 | 86 | 134 | 0.0 | 9.0 | 0.00 | 0.02 | 0.02 | 61 | 1009.9 |
| 20260903023039 | 87 | 115 | 0.0 | 11.0 | 0.00 | 0.02 | 0.02 | 60 | 1009.6 |
| 20260903021539 | 88 | 149 | 2.0 | 13.0 | 0.00 | 0.02 | 0.02 | 58 | 1009.2 |
| 20260903020047 | 89 | 144 | 0.0 | 8.0 | 0.00 | 0.02 | 0.02 | 56 | 1009.0 |